Theta_e
285 285 283 282 282 283 281 282 283 284 286 287 286 286 289 289 284 281 287 287 285 288 291 293 294 294 293 294 295 294 294 294 294 295 296 296 297 298 297 299 300 301 301 301 300 298 297 294 294 294 293 292 289 290 290 291 289 291 288 290 291 291 292 293 295 295 292 292 295 296 297 299 302 303 305 305 305 305 305 307 308 309 310 310 309 308 308
284 284 284 282 281 280 281 281 283 283 282 284 285 286 288 288 287 289 289 289 289 291 291 294 296 294 294 295 293 294 294 295 295 295 295 297 298 298 298 298 299 300 300 298 298 298 296 295 295 295 293 292 290 290 292 290 290 291 288 290 291 291 292 293 291 290 291 291 295 294 296 299 301 301 302 302 303 304 305 306 307 306 306 306 308 309 309
281 283 282 281 282 282 281 281 281 282 282 282 283 284 286 287 287 288 289 287 287 293 296 296 298 296 295 297 297 297 297 296 295 296 296 297 298 298 298 298 298 299 298 299 298 299 299 297 296 296 295 293 290 289 290 289 290 289 288 289 289 290 293 291 289 289 290 292 292 294 297 296 295 297 300 299 300 302 303 303 304 303 304 306 306 306 307
276 279 281 281 281 281 278 279 281 281 281 282 283 283 284 283 283 284 285 285 286 293 296 297 297 297 297 296 297 297 298 298 296 296 297 297 299 300 300 300 299 298 298 299 300 300 299 297 294 292 293 290 288 291 289 288 287 287 287 288 289 290 290 290 289 289 288 290 292 292 291 295 295 295 295 296 299 301 300 299 301 299 302 305 306 304 305
277 278 280 280 276 274 275 278 282 284 285 285 285 285 285 286 287 284 282 284 290 293 295 294 295 295 296 296 296 297 297 298 298 298 298 299 300 301 301 300 300 300 299 299 300 299 294 296 296 294 292 291 291 290 287 287 287 288 289 289 289 289 288 288 289 288 288 290 291 290 293 294 293 293 295 298 299 298 300 300 298 300 304 303 303 302 302
270 273 278 278 276 271 274 285 287 286 284 285 283 284 286 287 288 287 289 290 291 292 292 292 293 294 295 296 297 298 298 298 297 297 298 299 300 301 301 301 300 299 299 298 296 292 291 290 290 290 289 290 291 290 288 287 286 288 289 288 288 287 287 287 287 288 288 289 290 292 291 291 292 293 294 298 297 296 297 297 300 302 299 302 302 301 302
273 275 274 272 269 273 284 286 288 288 288 287 286 287 287 288 288 289 289 289 290 291 292 293 293 294 295 296 295 295 296 297 297 297 297 298 299 301 302 302 299 294 292 289 287 288 288 287 287 289 291 291 290 289 288 287 285 285 285 287 287 286 287 287 286 287 288 288 289 290 289 290 290 292 294 294 295 297 297 300 301 302 302 301 302 301 302
272 271 271 266 271 278 282 283 284 286 287 286 284 284 286 287 288 288 287 289 291 292 292 293 294 294 295 295 295 295 296 296 296 296 297 298 298 299 301 301 298 291 286 286 287 287 286 285 286 286 287 288 289 290 289 287 286 285 286 287 287 286 287 287 287 286 287 287 288 288 288 288 289 291 292 294 296 294 293 294 295 297 297 298 298 299 299
271 268 269 272 276 279 282 281 282 282 281 282 283 279 283 288 290 289 289 290 290 291 292 293 293 294 293 291 293 295 295 295 296 297 298 300 301 301 300 293 291 289 286 285 285 285 285 285 285 285 285 286 287 288 288 287 286 286 287 287 286 286 287 287 286 286 287 287 287 287 287 288 288 288 289 290 290 290 293 292 292 293 296 296 296 297 296
274 267 268 266 266 267 276 282 283 286 286 286 286 283 283 288 290 291 290 290 291 291 292 292 292 292 288 287 290 295 295 295 297 298 299 298 294 290 288 287 286 286 285 285 284 285 285 285 285 285 285 286 286 286 286 286 286 286 285 285 285 285 285 286 286 285 285 287 287 287 287 287 287 286 286 285 287 287 291 292 291 293 295 294 294 294 295
273 271 268 267 265 272 280 279 283 284 286 287 284 279 278 287 288 289 291 290 291 291 291 291 291 287 284 286 290 295 292 294 296 297 297 291 286 286 286 286 286 285 284 284 284 284 284 285 285 284 285 286 286 285 285 285 285 285 284 284 284 284 284 284 284 284 284 285 286 287 287 286 285 286 285 286 284 284 287 290 289 290 290 291 291 291 291
273 272 268 269 269 274 280 280 281 283 286 288 284 272 276 287 289 289 289 290 291 291 291 291 290 286 285 287 292 292 290 292 290 292 292 285 285 284 284 285 286 286 285 285 284 284 284 284 284 285 285 286 285 285 285 286 286 285 284 284 283 283 283 284 284 284 284 284 285 285 284 284 283 284 284 284 284 285 286 286 286 286 286 287 288 288 287
276 276 271 270 274 281 285 281 284 286 288 286 275 272 281 286 286 288 290 290 291 292 291 290 288 290 292 294 292 284 283 284 283 282 283 284 284 285 284 285 285 284 285 285 284 284 284 283 284 285 286 286 285 285 285 286 285 285 285 284 283 283 283 284 284 284 284 284 284 284 284 283 282 282 282 283 284 285 285 284 285 285 285 285 285 285 285
274 274 272 272 274 282 284 285 288 287 285 274 276 285 290 288 287 284 290 290 291 291 291 291 291 293 292 288 284 284 284 283 281 282 283 283 283 283 283 284 285 285 285 284 284 284 283 284 285 286 287 286 286 286 285 285 285 285 286 286 285 283 283 283 284 285 286 285 285 285 284 284 286 285 283 282 282 282 282 283 284 283 282 282 282 284 283
275 272 272 271 269 279 285 285 285 286 280 280 287 287 286 285 286 285 286 288 290 289 290 290 291 290 284 282 282 281 282 282 281 282 282 282 282 283 283 283 284 285 284 284 284 284 284 284 285 286 287 286 286 286 285 285 286 286 286 286 286 285 284 285 285 286 286 286 286 286 286 285 285 284 282 283 283 283 282 282 282 282 281 282 282 283 284
274 275 272 274 280 283 286 288 283 285 287 288 285 286 287 287 286 285 285 287 288 286 286 288 284 281 281 281 281 282 282 281 282 282 282 282 282 282 283 282 283 283 284 284 284 284 284 285 285 286 286 286 285 285 284 285 285 286 286 286 286 286 286 286 286 286 286 286 286 286 286 286 286 286 285 284 282 282 281 281 281 283 282 281 282 282 284
278 276 279 283 286 284 286 286 285 289 291 289 285 285 285 286 286 281 284 287 285 283 284 283 282 281 281 281 281 281 281 282 282 282 282 283 282 282 281 282 283 283 284 284 284 284 284 284 285 285 286 285 284 284 285 285 285 285 285 286 286 286 286 286 286 286 286 286 286 286 286 286 286 286 286 285 286 285 284 284 282 282 282 280 282 282 283
285 284 285 286 286 286 284 284 285 285 286 283 284 286 288 287 284 283 287 285 285 282 283 284 281 283 282 282 281 282 282 282 282 283 283 284 284 283 283 283 283 283 285 285 285 285 285 285 285 285 285 284 283 284 285 284 284 284 285 285 285 285 286 286 286 286 286 286 286 286 286 286 286 285 285 285 285 285 285 284 284 284 284 283 284 283 284
280 276 286 285 285 286 283 285 285 284 283 285 283 284 286 285 282 282 283 286 285 284 283 286 285 282 282 282 281 281 282 282 282 283 283 284 284 284 284 285 285 285 285 285 285 285 284 284 284 285 285 285 285 285 284 284 284 285 285 285 285 285 285 285 285 285 285 285 285 285 285 286 286 286 286 285 286 286 285 285 284 284 284 283 284 284 284
281 282 283 284 286 284 282 285 285 287 287 286 285 285 283 282 282 283 284 282 282 282 283 283 283 283 284 283 283 283 282 282 282 282 283 284 284 284 284 285 285 285 285 284 284 284 284 284 284 284 284 284 285 285 285 285 285 285 285 285 285 285 285 285 285 285 285 284 285 285 285 285 285 285 286 286 285 285 285 285 285 286 285 285 285 285 285
283 285 286 283 284 286 286 283 284 287 288 288 284 280 281 282 282 282 282 281 282 283 283 283 283 283 283 284 283 282 282 282 282 282 283 283 283 284 283 284 284 283 284 284 284 284 284 284 284 283 283 284 285 285 285 285 285 284 284 284 285 285 285 285 285 285 285 285 284 284 285 285 285 284 284 285 285 285 286 285 285 285 285 286 286 285 285
280 282 284 284 280 282 286 284 286 286 287 286 285 282 281 281 282 281 281 281 282 282 283 284 284 284 283 282 283 282 282 282 281 282 282 282 282 282 283 283 283 283 283 283 283 283 283 284 284 283 284 284 284 284 284 284 284 284 284 284 284 284 284 284 284 284 284 284 284 284 284 284 284 285 285 285 286 285 285 286 286 286 286 286 286 286 285
280 286 283 285 287 286 288 286 285 287 286 284 284 283 284 283 283 282 282 280 280 281 281 282 284 284 283 283 283 282 282 282 282 282 282 281 281 281 282 282 282 282 283 283 283 282 283 283 283 282 282 282 283 283 283 284 283 283 283 283 283 283 284 284 284 284 284 284 284 284 284 284 284 284 284 286 286 286 286 285 286 286 286 287 287 286 286
286 283 283 284 285 286 287 285 285 285 284 285 285 284 284 284 283 282 282 283 282 281 280 281 282 283 283 283 283 282 282 282 281 281 280 280 280 280 280 281 281 282 282 281 281 281 282 282 281 281 281 280 280 281 282 282 283 283 283 283 282 283 283 283 283 283 283 283 283 283 283 284 284 284 284 284 285 286 287 287 286 286 287 287 287 287 287
287 284 283 284 286 287 286 282 282 283 283 284 284 284 284 283 282 282 282 282 281 282 281 281 281 283 283 283 283 282 281 281 281 280 279 279 279 279 279 280 280 281 280 279 280 280 280 280 280 280 279 278 277 277 278 280 280 280 281 281 281 282 282 282 282 283 282 282 282 282 282 282 283 283 283 283 282 283 285 286 286 286 286 286 286 287 287
288 288 284 282 282 284 282 282 283 281 282 284 284 282 282 282 282 282 281 281 281 281 281 281 281 281 282 282 281 281 280 279 279 279 278 277 277 277 277 278 279 279 278 278 278 277 277 277 278 278 276 275 274 274 275 276 278 278 278 279 280 280 280 280 281 281 280 280 281 281 281 282 282 282 282 282 282 282 282 283 284 285 287 287 286 286 287
287 287 285 284 285 286 282 285 287 285 284 284 284 283 282 282 281 280 279 279 280 280 280 280 280 279 280 280 279 279 278 277 277 277 276 275 275 274 275 277 278 277 276 275 275 275 276 276 276 274 273 273 273 273 273 274 275 276 276 277 278 278 279 279 279 279 278 279 279 280 280 280 280 281 281 282 282 282 281 281 281 281 283 284 285 286 286
287 287 286 285 285 286 284 285 286 283 283 283 283 281 280 279 278 278 277 277 278 278 278 278 278 277 276 277 277 276 276 276 275 275 274 273 272 273 273 275 276 275 273 273 272 273 273 274 274 272 271 272 272 272 272 272 272 273 274 275 275 276 276 276 276 276 276 277 278 278 279 279 280 280 281 281 280 281 281 282 281 281 282 283 283 284 285
284 283 284 286 288 283 281 281 281 281 280 280 281 280 279 278 277 277 276 276 276 275 274 273 274 274 275 275 276 275 274 274 274 273 272 271 271 270 271 272 274 273 272 270 270 270 270 272 272 270 270 271 270 270 269 270 270 271 272 272 272 273 273 274 274 274 275 275 276 277 278 279 279 278 279 279 280 280 280 280 280 281 281 281 282 282 283
282 282 282 283 284 281 281 280 281 281 280 280 279 279 279 278 276 275 275 275 275 273 272 272 272 272 272 272 273 273 273 273 273 271 270 269 268 268 268 269 271 270 269 268 268 269 270 271 270 269 269 269 269 268 267 268 269 269 269 270 270 270 271 272 273 273 273 273 274 276 276 276 276 277 277 277 278 278 278 278 279 279 279 279 280 280 280
280 280 279 281 280 279 282 283 282 281 280 279 279 279 279 278 276 274 274 274 273 271 271 270 270 269 269 269 270 271 272 271 270 269 268 267 266 266 266 267 268 267 266 266 267 268 269 268 268 268 268 268 267 267 266 266 266 268 268 268 268 269 271 272 273 272 271 272 272 273 273 274 274 275 275 275 275 276 276 277 277 277 278 278 278 279 279
278 275 274 277 279 280 280 279 280 280 280 280 279 278 278 276 274 273 272 272 270 269 268 268 267 267 267 268 268 269 270 269 268 267 267 266 265 265 265 264 264 265 265 266 267 267 267 267 267 267 267 266 265 265 265 265 265 266 266 266 267 267 269 271 271 271 271 271 271 271 272 272 271 272 273 273 273 274 274 274 274 275 276 276 276 277 279
276 274 272 272 274 276 279 278 279 278 279 279 278 277 276 275 273 272 271 270 268 268 267 266 266 266 266 267 267 268 267 266 266 266 265 264 264 264 264 264 263 263 263 265 266 265 265 265 266 267 265 264 263 263 263 263 264 264 264 265 266 267 269 270 270 269 269 269 269 269 269 270 271 271 271 273 273 273 273 273 274 274 275 275 275 276 278
282 282 283 281 281 281 280 278 278 277 272 269 269 270 270 270 270 270 269 268 267 266 265 265 265 265 265 265 265 266 266 265 264 263 263 263 262 262 262 263 262 262 263 264 263 263 263 263 265 265 265 264 263 262 262 262 263 263 264 265 266 266 266 267 267 267 267 268 268 269 269 270 270 271 271 272 272 272 272 273 273 273 274 274 275 276 277
263 263 264 266 269 272 276 278 275 271 269 267 266 265 266 266 266 266 265 265 264 264 263 263 263 264 264 263 263 264 264 264 263 263 262 261 261 262 261 261 261 262 262 262 261 261 261 262 264 264 263 262 261 261 261 261 263 263 264 265 264 265 265 265 265 265 265 266 267 268 269 269 270 270 271 271 271 272 272 273 273 273 273 274 274 275 276
262 264 264 265 267 270 271 270 269 268 266 265 264 264 264 263 263 263 262 262 263 263 262 262 262 262 262 262 262 262 262 262 262 261 261 261 261 261 260 259 259 258 259 259 260 260 260 262 264 263 261 261 260 259 260 262 263 263 263 263 263 263 263 263 263 264 265 266 266 267 267 268 269 269 270 270 271 272 272 272 272 273 274 274 274 274 275
260 260 261 263 265 267 266 266 266 266 265 264 263 261 260 261 261 261 261 261 261 261 261 261 260 260 260 261 261 261 261 261 261 260 260 260 260 260 259 258 258 258 258 256 259 260 260 262 262 262 260 259 259 259 261 263 263 262 262 261 261 261 261 261 262 263 264 265 265 266 267 267 268 268 269 269 269 269 270 270 271 271 272 272 273 272 272
260 260 260 261 261 262 262 262 263 263 262 260 260 260 260 259 260 260 260 260 260 260 260 260 260 260 260 260 260 259 259 259 259 259 259 258 259 258 258 258 257 257 257 257 259 258 259 261 261 260 258 259 259 259 261 263 263 261 260 259 260 260 261 261 262 263 263 264 265 265 266 266 266 266 267 268 268 269 269 269 270 270 270 271 271 271 272
259 259 259 259 259 259 259 259 260 260 260 259 258 258 259 259 259 259 258 258 259 259 259 259 259 259 259 258 258 258 258 258 258 257 257 257 258 257 257 256 256 255 256 259 259 259 260 260 259 257 257 257 258 260 261 262 262 259 257 257 257 258 260 261 261 262 263 264 264 265 265 265 266 266 266 267 268 268 269 269 269 270 270 270 270 269 270
259 259 259 259 258 258 257 257 257 257 258 258 258 257 258 258 258 257 257 257 257 258 258 258 258 257 257 257 257 257 257 257 256 256 256 256 256 257 257 256 254 255 258 260 259 258 259 259 258 255 255 257 259 259 261 261 261 258 256 255 256 258 259 261 261 261 262 263 264 265 264 265 265 265 266 266 266 267 267 267 267 267 267 268 269 269 269
258 258 258 258 257 257 257 256 256 256 256 256 256 257 257 257 257 257 256 256 256 257 257 257 257 257 257 257 256 256 255 255 255 254 254 255 256 256 256 255 255 255 257 259 258 258 258 258 257 256 256 258 259 260 260 260 258 255 255 255 256 257 258 260 261 261 262 262 263 263 263 263 263 263 264 264 264 265 265 265 265 266 266 266 266 266 266
257 257 257 257 257 256 256 256 256 256 255 256 256 256 256 257 257 256 256 256 256 256 256 256 257 257 257 256 256 256 255 254 254 254 254 255 254 254 255 255 255 255 259 259 258 257 255 254 256 257 257 258 259 260 259 258 255 254 254 255 256 258 258 260 260 260 261 261 261 261 261 262 262 262 263 263 263 263 263 264 264 264 264 264 264 264 264
257 256 256 255 256 256 256 256 255 255 255 255 255 255 255 255 256 256 255 256 255 255 255 255 256 256 256 255 255 255 254 254 253 253 254 253 252 253 254 254 255 255 259 258 257 254 254 253 254 254 259 259 259 259 258 255 253 253 254 255 256 257 257 258 258 259 258 259 259 259 259 260 260 260 261 260 261 261 262 262 262 262 263 263 262 263 263
255 255 255 254 254 255 255 255 255 255 254 254 254 254 254 254 254 255 255 255 255 255 255 254 255 255 255 255 255 254 255 254 254 253 254 255 255 253 252 253 254 256 259 257 255 254 253 254 256 259 259 259 259 258 256 252 251 253 253 254 254 254 255 255 256 256 256 257 257 257 258 259 259 259 258 259 259 260 260 261 261 261 261 261 261 261 262
253 254 253 254 254 254 255 255 255 254 254 254 254 254 254 254 253 253 254 254 254 254 254 254 254 254 254 254 254 254 253 253 253 253 253 254 253 253 254 256 255 255 257 258 255 254 253 255 258 259 259 259 258 257 253 252 252 253 252 253 253 253 253 254 255 254 255 255 256 257 258 257 256 257 256 257 259 259 259 259 260 260 260 260 260 261 261
252 253 254 254 254 253 253 253 253 254 254 254 254 254 253 253 253 253 253 253 253 253 253 253 253 253 252 252 251 251 250 250 250 250 252 252 252 253 255 256 255 257 258 257 254 254 253 257 258 258 258 258 257 253 250 251 252 250 250 251 252 254 253 252 253 253 254 254 255 256 256 256 256 255 256 256 257 258 258 259 260 259 259 259 260 260 260
253 253 253 253 253 253 252 253 253 254 255 255 254 254 254 253 252 252 252 252 252 251 250 250 250 250 250 251 252 252 253 253 253 252 250 251 253 254 255 255 256 257 257 255 254 254 254 256 257 258 257 257 256 250 249 249 250 249 251 250 252 251 252 252 252 252 253 253 256 256 256 256 255 254 255 256 256 256 257 258 258 258 258 259 259 260 260
253 253 253 253 253 253 253 253 253 254 254 254 254 253 253 252 252 252 252 252 252 251 252 251 251 251 250 248 248 248 250 252 252 253 251 250 251 250 251 250 254 257 257 256 255 255 256 256 257 257 257 256 252 249 249 250 250 250 250 251 250 252 251 251 252 252 253 253 254 252 252 251 253 253 254 254 254 255 256 257 257 257 258 258 258 258 258
253 253 253 252 253 253 253 254 254 254 253 253 253 253 253 252 253 252 252 252 252 253 252 251 250 251 251 252 252 249 249 251 251 252 252 250 250 250 251 253 255 256 254 252 251 251 254 255 255 256 256 254 249 249 248 248 250 251 250 250 250 250 251 251 251 251 252 252 252 252 252 252 252 252 252 253 254 254 256 255 256 256 257 257 257 257 257
252 252 252 253 253 253 254 254 254 253 253 252 252 253 252 253 253 251 252 251 252 252 251 251 250 250 250 250 250 249 249 250 250 250 250 249 249 249 251 251 252 255 255 251 250 250 252 254 253 254 253 248 247 249 248 249 248 250 250 251 250 249 252 254 254 254 253 252 251 251 252 252 252 253 254 253 253 254 254 255 255 257 258 257 256 256 256
253 253 254 254 254 253 253 253 253 253 252 252 251 252 252 252 253 253 252 251 252 252 251 251 250 250 249 250 250 249 249 248 250 254 251 250 251 253 253 251 250 252 253 251 248 246 246 246 247 250 250 249 247 247 249 249 248 249 250 249 249 250 250 251 250 249 249 251 250 250 250 251 251 251 251 252 253 253 253 254 254 254 254 254 255 255 255
250 250 250 250 250 250 249 250 251 251 251 251 250 251 250 251 252 251 251 254 251 252 252 251 250 250 248 248 250 250 249 250 251 250 252 251 251 249 250 253 248 249 246 245 245 244 246 247 251 252 253 248 247 247 251 252 249 248 248 250 251 249 250 250 250 249 248 250 249 249 250 250 250 250 250 250 252 252 252 253 253 253 254 254 254 254 254
Wind_Speed
14 10 6 2 1 2 3 6 8 10 12 14 15 14 14 11 12 13 7 4 8 10 12 15 18 16 12 14 14 7 3 4 5 5 6 7 9 12 9 9 9 9 10 10 12 12 10 6 7 10 9 5 4 4 5 6 4 6 4 4 5 5 5 6 8 6 5 5 5 6 6 6 6 7 7 7 7 7 8 9 9 10 9 9 9 9 9
10 10 9 5 4 3 2 3 4 5 5 9 12 15 15 17 16 13 14 15 15 5 6 12 18 8 6 7 3 4 6 6 6 5 7 8 9 11 12 10 8 8 8 7 8 9 12 9 7 9 9 7 5 6 7 6 5 6 4 5 5 5 6 7 5 4 5 5 5 5 5 6 6 6 6 7 7 7 8 9 9 8 8 8 9 10 10
10 10 5 4 6 5 8 5 5 5 5 5 8 7 11 10 11 12 13 15 17 12 13 19 22 10 5 11 14 13 12 9 7 7 9 10 11 12 12 10 9 7 7 7 7 7 8 8 7 7 7 7 5 5 6 5 6 4 4 5 5 6 7 5 4 4 4 4 4 4 5 5 5 5 6 6 6 7 7 8 9 8 8 9 10 9 10
6 4 8 4 3 2 3 4 6 9 10 13 10 11 7 8 9 8 9 12 12 13 14 17 21 21 21 22 21 19 15 14 12 10 12 14 14 15 14 12 9 7 7 8 8 8 9 8 6 6 7 5 3 6 5 5 5 1 3 4 4 4 5 4 4 4 4 3 3 4 4 5 5 5 5 5 6 7 6 7 7 5 7 9 9 7 8
10 1 6 4 5 1 4 9 16 19 17 14 8 6 6 9 8 10 11 13 13 16 11 13 20 21 22 19 16 17 19 18 16 17 19 20 19 19 17 11 10 8 8 8 9 8 5 5 7 7 7 7 5 5 3 4 1 1 1 2 3 4 4 4 4 4 3 4 4 4 5 4 4 3 4 4 5 4 6 5 2 5 7 5 6 6 6
2 1 6 3 2 6 12 7 4 11 15 13 13 14 15 15 13 12 13 15 12 12 14 17 22 22 20 19 17 14 14 15 15 15 15 15 14 13 12 10 9 7 7 6 5 4 2 1 1 4 5 6 8 5 1 1 2 1 0 1 1 3 3 4 4 3 3 3 4 4 2 1 1 2 2 4 4 4 3 2 5 6 5 6 5 5 6
3 1 5 5 4 13 5 2 3 11 12 13 18 19 16 14 12 11 12 12 13 15 16 18 18 20 23 21 19 16 15 15 15 15 14 13 12 13 14 15 11 7 5 3 2 0 3 4 3 6 8 7 7 6 2 2 1 2 2 1 2 3 4 4 3 3 2 3 4 4 3 3 3 3 4 4 4 4 3 4 5 6 5 5 6 5 5
3 2 2 3 12 4 7 10 6 6 5 7 7 9 11 10 12 14 14 17 19 19 21 21 21 21 25 22 15 15 15 14 14 13 13 13 12 13 14 16 12 6 4 3 2 1 0 3 4 3 4 7 7 6 5 3 3 3 3 5 5 5 5 6 6 4 3 4 4 4 4 3 3 4 4 4 4 3 3 4 3 1 2 2 4 4 4
3 3 5 8 7 14 17 10 8 7 6 6 8 7 10 12 14 13 15 18 19 19 20 21 20 19 16 16 16 12 13 12 10 12 14 14 14 14 12 4 3 1 1 3 3 2 1 3 3 3 3 3 3 2 4 5 4 4 6 7 7 7 6 7 6 4 2 2 4 4 3 3 4 4 3 3 3 1 2 3 3 3 3 3 2 3 3
7 5 1 3 2 4 18 11 5 9 7 6 5 5 11 8 12 15 16 18 20 20 19 18 18 12 8 14 19 20 10 11 12 14 15 11 5 3 2 3 2 1 1 2 1 1 3 3 2 1 0 0 2 5 6 6 6 6 7 7 6 6 6 7 8 7 4 1 2 3 2 3 4 4 2 2 2 2 3 4 4 5 4 4 3 3 4
4 3 3 4 5 13 17 2 7 4 6 8 5 3 10 16 13 12 14 16 17 17 15 17 13 5 7 15 17 19 2 8 12 14 14 5 3 4 4 5 5 3 3 1 2 3 3 5 5 3 2 5 7 6 5 5 6 8 8 7 7 7 7 7 7 7 6 4 1 1 3 4 2 3 3 3 1 0 2 1 3 2 2 2 3 3 3
4 5 3 7 5 12 10 4 4 5 4 10 7 1 9 24 11 9 10 14 14 14 15 15 11 8 12 14 18 6 6 7 5 7 8 6 5 4 4 3 3 3 3 4 5 6 6 5 3 1 4 8 9 7 5 5 9 9 8 6 4 3 4 5 5 6 5 5 5 4 3 4 3 2 1 1 1 0 0 0 1 1 0 1 3 4 3
6 8 5 2 8 11 19 5 6 7 6 7 5 10 20 10 2 7 8 11 15 17 16 9 9 12 15 17 10 1 2 1 0 2 2 3 5 7 6 5 4 5 5 6 6 4 2 2 2 1 6 10 9 7 6 9 10 8 7 6 5 4 4 4 5 5 5 5 6 5 4 4 3 3 3 3 1 0 0 0 0 0 0 1 2 4 3
10 7 6 8 7 16 8 11 13 7 8 5 13 19 14 10 8 4 9 12 13 11 13 11 10 14 8 6 4 2 4 3 2 1 3 4 4 3 2 5 5 6 6 6 6 5 3 1 0 1 6 12 9 8 9 11 9 7 6 6 4 3 4 4 4 4 5 5 5 5 5 6 7 6 5 4 4 3 2 1 1 2 2 2 3 4 4
3 4 5 1 8 7 8 13 5 8 9 11 13 7 6 3 1 4 6 8 9 7 11 12 11 9 4 3 3 3 4 5 4 4 3 3 3 3 3 4 2 5 8 7 7 5 3 3 3 3 10 13 10 9 12 7 6 7 8 6 5 3 4 5 4 5 5 5 5 5 5 5 5 5 4 5 5 5 5 4 4 4 4 4 5 5 6
8 10 9 12 17 9 6 16 10 10 15 8 4 4 8 6 1 3 4 6 7 4 5 8 3 1 1 2 2 4 4 4 4 4 4 4 4 3 3 2 1 3 9 7 8 5 4 4 5 6 10 12 11 12 10 5 6 6 7 7 5 6 7 7 7 6 5 5 5 5 5 4 5 5 5 4 4 4 3 3 3 4 4 3 4 4 5
8 11 14 15 14 5 6 5 4 10 15 8 1 1 3 5 4 3 3 7 6 3 4 3 3 2 3 4 4 5 4 5 5 5 4 4 3 3 3 3 3 3 5 6 7 8 6 6 6 8 8 12 12 12 6 6 6 5 4 5 6 8 9 8 8 7 6 6 7 7 6 6 7 6 6 5 5 3 4 4 3 3 3 2 3 4 5
9 7 11 13 11 8 5 6 4 4 2 2 1 5 8 7 5 5 6 6 7 5 6 6 4 7 7 7 5 5 5 6 6 6 7 6 5 5 4 4 4 3 3 5 7 10 9 8 8 8 9 9 11 5 3 5 4 3 4 6 8 8 8 8 8 8 8 8 7 7 6 5 5 4 5 5 5 5 5 5 5 5 5 5 5 5 6
8 9 18 16 16 12 5 6 4 3 3 6 5 5 8 6 3 5 7 9 8 7 7 7 6 5 4 6 5 5 5 5 5 6 9 9 8 7 7 7 6 5 3 6 8 9 10 8 8 8 9 9 7 5 5 3 3 4 5 6 7 7 8 7 8 9 9 8 8 7 7 6 5 4 4 5 5 5 5 5 4 4 4 4 5 5 5
13 16 5 6 10 6 3 6 6 9 8 8 9 8 5 3 5 4 6 3 2 4 5 5 7 7 5 9 8 6 5 6 5 6 7 9 11 10 8 8 7 6 7 6 7 8 10 8 8 8 9 9 7 7 6 6 6 5 6 6 6 6 7 6 6 6 7 9 9 8 8 8 8 8 6 5 6 5 5 4 4 5 4 5 5 5 5
9 10 13 4 4 8 8 6 6 7 7 7 6 5 5 4 5 3 1 2 4 5 5 5 9 10 7 6 8 8 7 7 7 7 8 8 8 8 9 8 6 6 6 8 8 9 9 7 7 8 8 8 8 9 9 8 7 7 7 6 5 5 5 5 6 5 5 5 6 7 7 7 6 4 6 6 5 4 1 1 1 2 3 5 3 2 2
10 15 15 6 3 10 10 5 8 9 11 9 7 2 3 5 6 4 4 1 0 3 5 9 10 12 9 7 8 9 7 8 9 9 9 9 9 8 6 5 6 7 7 8 9 9 8 7 7 8 8 8 8 9 8 8 7 8 6 5 5 6 5 5 5 5 5 5 5 5 5 6 7 8 7 6 5 3 4 4 3 5 5 3 4 3 4
14 15 4 7 7 7 12 5 6 9 6 5 6 8 9 7 6 7 8 5 3 4 3 4 8 11 12 11 9 10 9 8 8 8 8 8 8 7 5 7 6 7 7 7 7 8 6 6 7 7 8 9 9 10 9 8 8 7 6 5 5 6 6 6 7 6 5 5 5 4 5 5 5 5 5 5 7 7 6 6 7 9 8 8 9 8 5
10 2 7 6 6 8 8 4 5 6 5 7 8 7 7 8 10 9 8 10 12 7 5 4 4 10 10 8 10 12 9 9 9 9 7 7 7 6 5 6 6 6 7 7 7 6 5 5 6 7 9 10 10 10 10 9 7 6 6 5 5 5 5 5 7 7 6 6 6 6 5 5 5 7 8 8 4 3 5 4 6 9 10 11 8 5 6
12 3 5 7 7 9 6 1 1 2 3 6 6 10 12 9 6 6 8 5 4 11 12 9 5 5 10 9 9 11 11 9 8 9 9 8 6 5 5 5 6 6 6 5 5 5 5 5 6 7 8 9 10 10 10 9 9 8 8 7 6 5 5 5 6 6 6 7 7 7 8 8 7 7 7 7 10 8 2 4 8 7 8 7 7 7 7
10 8 3 2 2 6 2 1 1 2 5 8 7 4 4 6 7 6 5 6 6 5 9 11 10 7 8 11 10 10 11 9 8 7 7 7 6 5 5 5 5 6 6 6 6 5 5 5 6 7 8 9 9 10 9 9 8 8 8 7 6 6 6 6 6 5 6 6 6 6 6 5 6 6 6 6 6 8 12 8 1 3 4 4 6 8 8
9 7 3 5 10 14 4 8 12 7 9 7 6 6 6 7 8 7 7 6 6 6 8 8 10 9 8 9 10 9 10 9 7 6 6 7 6 5 3 4 7 8 6 6 6 6 6 5 7 8 8 9 9 9 9 9 8 8 7 7 6 6 10 8 5 5 5 5 5 5 5 5 6 6 6 6 6 7 7 9 12 11 6 5 5 7 7
11 9 8 13 15 14 8 10 10 2 5 7 8 10 8 9 10 10 11 10 9 8 7 6 7 9 9 6 9 9 8 7 8 7 6 6 5 4 5 5 6 6 6 5 5 4 5 4 6 7 7 8 9 9 9 9 8 8 7 7 6 6 5 6 6 5 6 6 6 6 6 6 5 6 6 5 6 5 6 7 8 10 10 7 6 6 10
9 6 7 11 13 5 2 1 3 4 4 3 5 8 11 12 9 10 9 8 9 9 8 7 6 5 6 5 5 8 8 8 9 8 7 6 5 5 5 5 5 6 6 4 3 3 3 3 6 6 6 6 8 8 8 8 7 6 6 5 5 5 5 5 5 5 5 5 5 6 6 6 6 6 5 5 5 5 6 6 7 7 9 10 9 7 5
5 4 5 7 8 4 3 4 6 6 8 9 11 10 11 15 12 8 9 8 7 8 7 7 6 6 5 6 5 5 8 9 9 8 7 6 5 5 5 4 3 6 5 5 3 2 2 4 5 4 4 5 5 5 6 5 5 5 6 6 5 5 5 5 5 5 5 5 5 8 6 5 5 5 5 5 5 5 6 5 6 6 8 8 7 9 9
5 6 7 7 7 5 8 9 6 9 10 10 12 13 9 8 12 12 9 7 6 7 7 6 7 7 6 6 5 5 6 8 8 8 7 5 4 4 4 4 3 3 2 1 0 1 2 3 3 3 4 5 5 5 4 4 3 4 3 4 4 8 10 9 6 5 5 5 6 6 5 6 5 6 7 7 6 6 5 5 5 6 6 6 6 8 8
5 6 6 6 6 7 7 4 7 10 11 11 12 14 15 18 18 16 12 8 6 8 8 7 7 7 6 4 3 3 6 7 7 7 6 5 4 3 3 3 3 2 1 1 3 4 3 2 3 4 5 5 5 4 3 3 3 3 3 4 4 4 6 7 4 5 5 6 6 5 6 6 6 6 6 7 6 6 6 7 7 7 6 6 7 7 8
5 4 5 3 2 5 9 7 10 10 10 12 9 5 6 6 10 9 8 9 9 6 7 7 6 6 5 4 3 3 5 5 6 6 5 4 3 3 3 2 2 1 1 2 4 4 4 3 3 4 3 4 4 3 4 4 3 3 3 4 4 4 4 5 6 5 5 5 5 4 4 5 6 6 6 7 7 8 7 7 7 7 7 7 7 7 7
14 16 14 11 14 14 16 13 9 8 7 8 7 9 11 10 9 8 9 8 10 9 7 6 6 5 4 4 3 3 4 4 3 3 3 3 4 4 4 3 2 2 4 5 5 5 4 4 4 4 5 5 4 4 4 4 4 4 4 4 4 4 4 4 5 4 4 5 5 6 6 6 5 5 6 6 6 6 7 7 8 8 7 7 6 6 8
1 1 1 1 1 0 1 8 10 12 14 15 10 9 7 7 8 9 9 10 9 8 6 6 6 5 5 4 4 2 3 4 4 4 3 2 2 3 3 4 5 5 6 6 6 5 5 5 5 6 6 5 3 4 4 4 4 4 5 5 5 4 5 5 5 5 5 5 6 5 5 5 5 7 7 7 6 7 7 7 7 7 7 7 7 6 9
1 2 4 5 5 6 9 10 10 12 11 10 8 9 9 7 8 9 9 8 8 7 7 6 6 6 5 4 3 3 3 4 4 3 3 2 2 2 2 3 4 5 4 4 5 6 6 4 9 11 5 4 4 4 5 5 4 4 4 5 4 5 5 5 5 5 5 5 5 6 6 7 8 7 7 7 7 7 7 7 7 7 7 7 7 8 8
6 5 5 7 7 9 10 12 11 13 12 12 12 11 10 8 9 8 8 8 7 6 6 6 6 6 5 4 4 3 3 3 3 2 2 2 2 2 3 3 4 3 3 4 6 6 6 6 11 12 7 4 5 5 7 11 6 5 5 5 4 4 4 4 4 4 4 4 4 5 6 6 5 6 7 7 7 7 8 8 9 9 9 9 10 10 10
7 7 8 9 10 11 13 10 9 11 14 14 9 8 10 11 10 9 8 7 7 6 5 6 6 7 6 6 5 4 3 3 2 2 2 2 1 3 3 4 4 3 3 3 4 5 4 7 11 8 6 6 6 7 8 12 11 7 5 5 4 4 5 4 4 5 5 4 6 5 5 5 5 5 5 6 6 7 8 8 8 8 8 9 9 10 10
8 7 7 7 8 11 12 10 9 8 8 13 11 9 8 9 9 9 8 7 6 5 6 6 6 7 6 6 5 4 3 2 2 1 2 2 1 4 5 5 3 2 2 3 4 4 5 7 6 6 6 6 6 6 7 9 9 5 5 5 5 5 5 5 4 5 5 6 5 5 5 5 5 5 5 6 5 6 7 8 8 9 8 8 9 10 10
7 7 7 7 8 8 9 9 9 9 8 8 10 9 7 7 7 7 7 7 5 5 5 5 6 5 5 4 4 3 2 2 2 3 3 2 3 5 5 3 3 5 4 6 4 4 6 9 6 4 4 4 5 4 5 7 7 4 5 4 5 5 4 5 4 3 4 4 5 6 5 5 6 6 6 6 6 7 7 7 7 8 8 8 8 8 10
6 6 6 7 7 6 7 8 8 7 7 7 7 6 6 6 7 7 6 5 5 4 4 4 4 4 4 3 3 3 2 2 3 3 2 3 4 3 3 3 3 4 4 3 3 4 5 5 4 4 4 4 4 6 5 7 6 4 4 5 3 3 3 3 2 3 4 4 5 5 5 5 5 5 6 5 6 5 6 6 7 7 8 8 9 9 9
6 7 7 7 6 6 7 7 7 7 7 6 7 7 7 6 6 6 5 5 5 4 4 3 3 3 3 3 2 3 4 4 3 3 3 2 3 3 4 2 4 4 6 6 4 5 3 3 5 4 4 4 4 9 8 5 4 3 3 4 2 3 2 2 3 3 4 4 3 3 5 4 4 5 5 5 6 6 6 7 7 7 7 8 9 9 9
5 6 6 5 6 6 6 7 6 7 8 6 6 5 6 5 5 6 5 5 5 4 4 4 3 5 5 4 4 4 3 3 4 4 4 2 0 1 2 3 4 5 8 5 4 4 5 3 4 3 6 6 5 8 6 4 3 3 3 3 4 3 4 4 3 3 3 3 4 4 4 5 6 6 7 7 6 7 7 7 7 8 8 7 7 8 8
5 5 5 5 6 6 6 6 6 6 7 5 4 4 5 5 4 5 5 5 5 4 5 4 4 4 4 3 3 3 3 3 3 2 4 3 3 1 2 2 3 5 7 5 3 4 5 4 3 6 8 8 8 8 4 3 3 3 3 3 3 3 3 3 3 3 3 4 4 4 5 6 6 6 7 7 8 7 7 7 7 7 7 8 8 8 8
7 6 6 6 6 6 5 5 5 5 4 4 5 5 4 4 5 4 5 6 6 4 4 4 3 3 3 3 2 1 1 0 1 1 3 2 3 1 2 5 5 3 5 7 3 3 4 4 6 9 8 9 8 7 4 4 4 3 3 3 2 3 2 3 3 3 3 3 3 4 6 4 4 5 5 6 8 7 8 9 9 9 10 10 9 10 10
6 5 6 6 6 6 5 4 3 3 5 6 6 5 4 4 5 4 3 4 5 3 3 2 3 2 2 3 2 2 2 2 1 0 1 2 1 3 4 4 4 4 6 7 2 5 4 8 9 8 8 8 8 5 3 3 4 4 3 3 3 4 3 3 3 4 4 4 4 4 5 5 6 6 7 7 8 9 9 11 10 8 8 8 8 9 9
6 5 5 5 5 4 4 3 4 5 4 5 6 4 3 3 4 4 3 3 3 3 3 3 3 3 2 2 3 4 4 4 3 1 0 2 1 3 4 5 5 6 5 4 4 4 4 5 6 8 8 8 7 3 4 4 4 2 4 3 3 3 4 4 4 5 5 5 7 8 8 8 7 7 8 8 8 8 7 8 7 7 7 9 9 10 10
5 5 4 4 5 5 4 4 4 4 4 5 4 4 3 4 5 5 4 4 4 3 4 3 4 4 4 2 0 0 1 4 2 1 0 1 3 2 3 3 5 6 6 5 5 5 9 9 9 8 8 8 6 4 4 4 3 4 4 5 5 6 6 6 6 6 6 6 7 7 7 7 7 7 6 6 6 6 6 6 7 7 7 7 8 8 8
4 5 4 4 4 4 3 3 4 4 3 3 4 4 3 5 5 4 3 4 5 4 3 4 5 4 2 3 3 3 1 0 1 1 0 0 2 3 4 3 5 5 4 2 4 4 7 9 9 9 8 6 6 6 6 6 6 6 6 6 6 6 5 5 4 5 5 5 6 6 6 6 6 6 6 6 6 6 7 6 6 6 7 7 7 8 7
2 3 2 2 2 2 2 3 2 2 3 4 4 3 3 3 4 3 3 3 4 4 3 3 3 3 3 3 3 2 2 2 1 0 1 1 3 2 3 2 3 5 5 3 3 4 6 8 8 7 6 4 6 5 5 5 4 4 4 5 4 4 5 6 6 6 5 6 5 5 5 5 5 6 7 5 6 5 6 6 6 9 13 10 7 7 7
1 1 2 2 2 2 2 2 3 4 4 3 3 2 2 3 3 4 4 4 4 5 4 3 2 3 3 2 2 2 3 2 2 2 1 2 1 2 3 2 3 3 4 3 3 3 4 5 4 4 4 3 3 3 3 3 3 4 4 4 4 4 4 6 6 5 5 6 5 5 5 5 5 5 5 5 6 6 6 7 7 6 6 6 7 7 7
3 3 4 4 4 4 4 3 3 2 2 2 3 3 3 3 4 4 3 3 5 5 5 5 2 0 1 2 2 3 2 1 2 2 2 2 1 1 3 4 2 3 3 3 3 4 5 3 4 5 4 2 2 2 3 4 2 2 3 5 4 4 5 6 6 5 4 5 5 5 5 5 5 4 4 5 5 6 6 6 7 7 7 7 7 7 7
Wind_Direction
236 234 231 154 74 157 172 193 199 201 205 215 226 235 241 241 235 251 261 232 213 233 238 257 262 262 260 266 268 268 237 271 290 297 301 296 294 295 299 297 298 300 303 306 306 300 285 286 278 269 271 281 284 271 257 256 239 233 212 204 224 222 223 229 235 232 238 243 243 249 244 240 234 229 222 216 209 203 199 205 208 209 207 206 209 214 221
234 239 239 236 209 216 167 168 196 210 201 221 220 226 229 234 242 250 257 269 259 270 291 274 268 251 237 259 268 292 294 281 279 281 277 278 278 281 286 283 284 293 302 304 292 296 298 298 301 301 300 289 272 253 250 238 230 235 170 207 209 219 224 234 237 231 232 238 239 240 244 240 236 230 223 218 210 206 207 207 208 206 203 205 206 211 214
235 236 228 220 206 213 242 223 227 234 231 227 216 220 234 237 247 242 250 255 265 257 255 268 273 267 267 276 272 266 266 269 267 270 272 272 272 269 268 269 271 282 295 300 294 298 294 291 280 275 270 273 282 276 267 260 242 229 175 204 210 211 228 230 225 229 229 235 229 240 238 242 243 232 227 220 215 217 217 210 208 206 200 205 210 210 208
255 211 195 203 103 117 189 237 215 218 217 231 225 223 201 198 218 225 231 240 249 251 238 253 265 270 265 260 261 265 265 259 251 254 264 268 270 271 263 264 268 272 278 286 294 295 302 305 299 295 296 290 298 269 284 282 291 300 175 200 215 241 249 245 233 218 216 214 216 234 239 238 230 228 227 220 221 221 221 220 221 206 208 214 213 208 208
237 257 148 149 112 77 300 248 222 214 218 220 241 252 228 215 199 226 226 238 229 243 237 242 256 252 256 258 254 258 257 255 249 245 245 249 255 261 263 252 254 254 248 252 263 285 301 321 338 324 314 306 283 266 272 273 301 120 189 213 235 255 264 249 247 225 200 189 204 216 225 230 244 246 233 235 239 235 232 240 217 213 225 220 221 214 207
266 255 128 118 151 243 239 249 198 193 212 212 225 233 222 221 189 221 219 236 238 243 245 234 248 256 254 255 252 241 251 260 253 245 245 248 248 253 259 254 240 242 254 259 261 264 260 275 332 310 308 304 301 303 275 76 101 69 83 358 334 291 289 273 265 262 253 215 214 222 215 246 320 276 266 245 251 253 251 212 212 226 226 224 227 217 216
146 169 85 64 200 236 225 7 198 179 195 204 212 228 230 230 228 238 251 252 249 244 246 249 250 257 260 255 254 249 238 241 248 248 244 239 243 250 258 262 255 241 223 241 263 338 1 349 359 358 337 340 318 319 327 49 35 83 63 58 8 340 320 307 318 315 310 294 278 263 241 205 195 213 218 237 241 241 234 228 222 222 218 220 223 217 220
60 50 116 140 235 259 314 270 240 242 204 200 195 254 252 238 228 221 229 241 242 243 246 249 250 252 260 265 263 266 260 253 256 257 254 250 241 242 244 251 251 221 209 201 195 189 301 32 9 27 328 322 331 314 335 12 25 45 68 57 27 9 346 326 325 327 326 295 279 285 280 259 220 221 214 214 223 238 247 264 280 271 260 234 226 230 235
151 196 152 228 327 321 284 269 230 156 190 152 159 235 254 224 223 207 223 233 240 243 247 250 254 260 272 289 285 260 251 252 250 251 255 249 242 238 248 240 238 207 242 211 205 179 109 89 52 9 322 300 280 332 14 1 25 30 44 42 24 8 353 340 330 323 311 278 290 289 296 284 275 271 251 251 252 224 228 255 262 271 255 248 245 242 261
132 120 180 330 11 269 262 244 81 147 174 139 154 170 273 241 213 210 212 226 234 239 244 252 255 265 299 284 276 270 245 222 226 236 242 242 232 217 168 136 145 146 270 310 310 84 122 104 112 165 211 135 77 51 23 7 18 21 29 24 12 10 347 337 330 327 329 242 259 287 283 250 255 269 285 286 249 191 203 226 234 235 251 276 292 296 281
105 153 169 206 208 244 250 76 127 150 148 135 112 86 271 265 226 207 203 224 234 238 242 249 254 258 262 259 264 276 189 204 217 227 237 219 156 153 162 169 168 154 137 97 15 10 34 44 357 1 75 92 79 61 36 16 20 22 13 2 7 355 332 321 320 323 334 5 30 312 299 291 297 290 287 279 302 154 231 247 259 332 331 285 299 312 309
173 146 145 235 203 252 265 115 186 168 112 102 84 280 266 259 236 194 191 218 233 243 243 242 242 213 236 253 262 258 179 222 237 228 214 163 159 133 112 98 140 139 128 101 66 44 29 3 325 19 88 78 70 60 42 44 36 16 353 343 338 338 324 321 320 336 351 5 24 29 346 319 314 276 287 315 332 176 226 127 305 22 34 337 293 290 306
168 155 229 344 278 259 259 178 112 122 105 91 106 216 239 265 89 178 169 214 223 232 242 228 234 229 223 242 267 64 288 90 22 37 71 142 149 150 145 144 136 108 99 97 91 87 42 339 321 53 93 80 65 51 40 42 31 7 336 322 339 349 341 347 356 358 2 19 17 14 23 0 344 11 21 358 357 28 325 62 67 10 215 210 240 262 261
199 191 192 234 274 263 247 106 155 137 92 182 218 231 242 260 269 104 182 216 226 231 235 234 230 246 254 283 340 357 359 353 31 30 92 98 75 48 86 124 131 114 104 101 99 82 73 77 315 117 95 84 78 63 50 33 7 346 336 331 335 5 22 21 11 12 18 18 37 36 25 27 22 13 4 13 22 17 34 38 5 331 344 336 313 300 297
111 112 184 249 265 271 143 154 116 163 170 227 237 277 293 259 261 176 231 231 250 217 248 243 244 275 348 15 21 40 41 47 38 32 24 48 75 95 94 103 121 130 109 100 89 91 76 67 48 45 80 79 75 69 55 29 8 355 342 335 340 16 33 33 28 23 19 32 38 40 42 44 53 38 20 21 11 29 25 22 18 358 351 352 342 318 309
162 170 174 212 220 234 127 138 170 192 208 215 199 197 263 267 232 241 237 263 254 301 274 289 313 36 126 62 88 77 62 65 60 51 46 39 33 25 22 42 93 109 107 107 102 91 79 71 64 55 69 75 66 61 44 13 27 17 354 338 347 21 28 24 20 18 16 26 37 47 50 58 69 64 44 31 53 47 47 50 30 3 346 356 339 320 310
173 193 210 231 237 188 182 197 182 196 213 222 113 162 234 274 279 174 197 254 269 241 228 242 186 150 206 166 165 132 137 112 98 82 59 44 38 34 31 25 13 33 84 98 96 82 63 59 57 61 62 74 65 58 24 21 21 28 2 352 8 20 22 18 14 4 6 18 22 26 27 33 40 36 38 39 41 37 47 46 50 31 348 2 343 320 321
220 270 236 233 251 240 226 246 230 218 255 321 205 232 256 243 206 180 210 236 238 209 181 164 216 196 175 151 144 126 124 115 114 107 92 69 44 32 28 26 19 29 51 72 75 76 58 44 46 51 54 62 70 57 31 27 11 17 15 28 26 15 17 19 10 0 8 8 14 18 23 30 43 47 44 30 34 19 33 35 35 27 4 360 355 350 338
148 245 238 235 244 245 234 243 274 260 206 238 215 231 229 247 182 211 217 220 224 205 187 208 193 170 158 132 124 119 114 106 107 105 101 89 74 49 27 1 352 6 25 54 61 67 64 42 45 42 51 51 59 61 48 28 24 29 31 34 30 20 17 12 10 9 8 5 357 1 12 10 19 28 30 29 26 28 34 34 24 35 16 9 353 348 340
185 236 214 216 252 272 213 193 221 243 231 233 234 227 234 207 209 202 222 200 190 154 175 172 146 150 160 144 141 132 126 121 113 106 104 107 103 92 67 23 7 14 31 41 47 53 56 44 48 49 48 45 40 43 40 28 26 35 41 32 33 21 13 11 13 10 8 1 3 1 0 5 3 359 7 13 17 9 359 356 13 356 356 351 336 330 327
248 283 276 229 341 291 256 224 240 235 236 238 247 231 219 200 201 224 154 191 205 182 179 146 142 138 158 152 143 135 133 122 116 109 101 85 78 74 83 88 68 39 25 38 37 43 42 36 44 52 50 44 38 37 31 27 23 30 24 19 22 25 15 13 11 7 8 8 4 358 352 354 360 351 334 335 340 330 300 198 222 305 310 305 289 240 241
232 225 237 116 231 253 257 199 219 229 236 222 229 177 203 205 202 184 161 123 213 167 165 159 155 146 147 151 145 137 133 129 124 119 108 102 92 84 76 67 69 74 59 55 49 40 29 23 32 39 41 35 33 33 31 27 25 33 21 15 18 14 10 9 7 3 5 3 0 358 355 350 343 341 336 305 278 283 316 332 271 243 221 249 274 307 293
222 234 220 155 207 258 257 217 217 227 226 181 192 206 215 214 205 184 165 145 124 136 132 158 154 146 148 150 142 132 132 130 121 114 113 107 102 97 96 89 72 71 67 60 61 56 41 33 33 36 38 31 27 23 23 23 24 25 20 23 19 10 6 6 359 356 355 358 354 352 349 347 344 337 333 344 309 284 263 287 320 321 300 262 268 268 235
260 216 168 181 171 222 260 224 216 231 199 179 213 217 211 201 192 189 184 177 156 151 135 118 142 142 136 142 138 129 121 118 114 105 93 91 94 95 85 96 97 86 74 67 61 53 42 46 48 45 43 33 27 18 16 17 16 27 27 29 24 8 4 355 354 356 356 352 350 352 351 353 353 349 345 340 350 288 290 324 313 307 304 308 317 311 272
236 178 169 194 214 243 270 14 277 239 176 173 195 208 199 192 189 175 166 159 154 149 144 134 119 131 131 127 126 125 125 116 112 111 108 102 89 78 78 78 80 83 79 68 58 51 45 41 50 52 50 36 25 16 8 8 11 19 20 21 20 10 5 360 358 356 356 355 350 350 346 347 347 350 347 347 332 329 274 280 296 282 285 301 319 332 317
248 251 193 186 248 255 269 7 283 165 194 197 206 198 175 161 154 135 133 131 124 121 125 130 124 117 121 123 118 116 108 106 110 110 107 102 91 74 60 48 72 81 76 64 51 42 39 39 53 59 50 34 21 11 3 360 3 10 8 8 5 7 1 357 358 355 352 344 340 335 336 330 333 332 335 328 324 319 322 320 234 255 257 297 309 301 288
246 248 232 285 272 265 211 222 256 208 206 198 181 159 148 130 125 114 102 94 96 99 104 109 112 110 101 103 108 106 109 110 96 86 89 86 82 75 58 40 65 68 63 55 44 29 26 38 56 54 41 24 16 6 2 357 356 360 359 359 358 357 356 356 352 343 338 327 325 323 323 327 326 329 321 322 312 314 312 311 315 318 317 308 297 291 296
230 229 183 223 245 247 237 225 243 227 174 172 155 143 140 126 120 119 115 111 104 95 82 82 105 115 108 107 114 109 106 108 108 104 88 75 60 48 37 38 72 73 66 57 42 22 11 32 64 59 38 22 14 5 359 354 353 353 352 352 355 350 346 346 340 332 327 324 321 320 317 316 314 312 311 307 307 297 292 294 300 303 306 310 310 309 291
234 225 212 226 243 269 66 104 106 143 152 135 138 132 134 130 134 128 126 122 122 108 92 77 49 37 82 94 93 110 112 112 110 104 94 75 49 31 21 16 72 85 80 68 49 17 8 33 75 60 41 26 16 6 353 352 348 345 343 345 346 338 332 328 324 317 314 315 313 312 311 313 309 305 298 294 294 287 287 286 288 290 295 309 315 307 280
237 224 228 238 251 241 195 202 190 170 164 160 153 166 160 141 137 142 134 131 127 109 101 100 87 77 64 81 74 103 119 119 112 104 94 80 57 31 19 355 71 89 80 55 35 23 34 71 79 74 50 31 20 3 345 344 334 338 333 341 337 324 318 309 313 315 316 314 315 320 316 309 307 302 300 299 292 292 293 290 286 294 301 306 309 311 320
219 235 235 249 252 234 225 231 197 186 170 171 167 159 169 150 139 135 134 117 106 101 99 99 96 93 76 75 82 86 91 95 98 101 99 92 76 54 38 26 129 132 114 78 26 38 64 70 78 69 48 20 9 351 346 341 327 332 336 331 321 320 314 313 318 323 324 322 318 316 314 315 317 319 314 312 309 304 301 299 302 301 303 305 309 312 316
230 252 259 256 243 236 240 217 177 179 179 170 167 173 170 163 161 155 145 133 114 119 115 107 101 98 92 79 61 65 86 95 100 105 105 97 81 63 54 53 58 74 105 87 82 75 71 78 74 62 34 17 4 350 350 344 334 342 331 330 319 300 296 307 318 320 327 315 311 316 317 322 317 312 312 308 306 312 317 318 313 314 314 315 316 319 319
205 247 289 268 250 233 226 205 180 185 175 174 172 130 103 93 75 91 109 115 115 102 98 95 89 85 84 85 80 76 94 101 106 111 109 100 75 50 29 34 49 36 24 50 73 58 42 24 20 35 40 25 357 351 350 339 333 327 316 305 303 309 321 329 332 328 312 307 305 309 314 312 304 304 301 309 316 317 313 309 309 313 314 316 315 314 318
206 222 233 219 201 207 204 201 182 148 96 55 63 91 83 76 85 103 107 112 111 107 92 93 89 86 83 78 78 91 122 109 96 85 72 58 37 21 5 8 360 34 84 76 60 36 16 1 358 6 18 15 355 360 345 340 330 326 313 309 325 338 344 335 334 329 322 325 322 322 303 301 309 306 309 313 314 308 311 311 314 310 306 305 302 303 305
64 58 69 71 40 12 167 161 155 145 132 121 105 80 74 88 90 100 103 106 102 102 96 89 96 101 95 92 88 106 125 130 119 123 103 66 35 14 354 360 5 43 61 60 42 23 358 338 352 7 13 3 7 1 341 327 333 334 342 352 351 345 343 338 342 336 335 328 324 319 326 327 327 329 325 319 311 310 307 305 305 309 306 308 308 315 313
25 87 58 54 60 83 97 106 104 100 96 99 105 109 109 102 93 97 93 91 99 101 102 112 112 115 115 114 117 123 131 117 115 107 101 69 41 28 13 29 39 49 38 24 32 13 345 341 8 12 11 355 6 347 336 345 358 3 359 359 351 352 345 345 337 334 335 333 339 340 338 336 332 328 326 324 320 319 319 316 312 314 317 318 318 321 327
28 59 70 73 70 89 88 89 112 122 123 124 125 121 112 97 95 94 96 99 103 109 118 124 124 119 116 116 118 114 94 104 98 96 74 40 37 49 54 61 53 50 37 25 360 1 344 358 7 8 360 355 353 342 340 358 10 11 8 3 3 351 346 330 338 335 339 336 335 337 335 330 325 336 339 341 332 332 330 329 333 333 331 328 333 330 325
54 65 59 64 76 86 91 87 101 113 116 104 95 101 112 117 116 112 107 105 108 112 120 123 126 127 124 125 128 123 110 83 77 63 55 37 20 91 79 80 61 39 31 6 350 352 338 5 8 0 348 350 345 337 343 1 5 11 359 352 344 335 335 335 332 336 340 327 344 331 329 338 335 327 323 326 322 328 330 328 327 326 327 325 323 325 326
81 68 65 71 80 85 92 80 70 60 71 109 111 98 96 104 113 116 110 109 106 111 117 122 125 125 135 137 132 122 100 73 57 69 72 20 53 98 99 96 86 38 290 328 19 349 3 12 5 351 348 332 332 321 345 355 3 10 341 328 325 313 322 313 315 321 328 334 326 327 336 327 321 325 320 317 322 325 326 331 333 331 334 335 335 325 321
82 83 82 87 80 83 78 78 71 73 68 74 102 105 110 108 106 106 105 103 101 107 114 128 131 127 125 120 114 109 76 56 58 75 59 16 73 104 103 74 35 353 349 23 18 3 13 11 354 341 331 324 325 326 350 0 6 350 329 318 305 306 297 294 289 293 303 315 326 338 331 336 341 339 338 343 342 343 343 342 341 338 333 326 325 331 333
87 90 89 80 78 68 76 84 81 73 71 70 72 81 88 99 112 103 100 95 91 84 84 99 107 100 90 84 86 61 52 45 48 38 354 91 77 80 92 75 10 348 326 21 23 25 8 3 346 348 321 343 327 5 5 8 358 336 328 318 306 294 293 305 328 341 335 340 343 350 346 345 332 333 336 342 338 338 337 336 337 338 338 337 340 337 336
82 86 87 84 82 88 87 91 101 94 78 72 71 70 72 81 89 97 101 103 101 98 87 64 73 88 91 82 74 72 49 17 14 33 27 87 109 98 60 43 26 339 358 20 22 16 359 351 346 336 329 355 355 13 16 6 340 330 327 332 329 340 341 355 6 349 352 343 344 343 342 325 330 336 341 342 340 341 340 340 339 338 339 342 340 338 336
79 94 95 100 103 103 105 105 93 97 94 73 61 59 71 79 88 94 102 101 104 102 92 69 61 67 64 58 59 63 32 3 30 15 62 39 191 178 83 323 337 330 359 15 17 8 360 343 335 302 5 9 9 15 12 350 330 338 344 353 353 6 4 8 1 357 344 343 354 349 335 341 356 348 348 344 341 340 340 342 340 340 341 339 336 336 336
52 67 85 97 97 98 104 103 103 95 87 76 62 75 82 72 74 92 93 101 93 84 86 77 84 77 68 68 77 57 49 32 28 15 84 81 54 354 137 8 339 342 356 12 22 358 358 332 315 3 9 13 18 19 7 341 343 349 356 0 353 358 359 354 352 353 353 2 355 343 350 360 352 353 352 345 341 342 341 339 335 339 339 339 335 335 334
54 57 61 69 74 73 68 75 74 75 80 98 98 90 83 86 83 75 94 90 95 100 100 96 97 100 106 99 111 111 126 196 125 41 81 37 43 332 10 11 345 334 344 17 2 359 345 328 360 9 10 16 19 18 357 350 348 353 353 352 350 357 359 353 356 354 351 356 346 350 3 359 355 356 347 346 346 345 344 344 344 346 345 340 337 335 334
78 70 75 74 67 66 65 77 77 93 120 123 108 89 82 86 90 99 107 110 103 105 122 128 119 112 136 120 98 88 100 64 49 146 94 97 121 284 338 339 337 346 0 12 360 358 337 355 4 8 13 17 19 9 351 343 346 343 344 354 355 2 358 355 358 353 356 354 347 1 3 357 1 357 354 352 350 347 343 341 338 335 333 326 324 326 326
112 99 86 88 87 88 89 105 117 121 120 104 91 98 75 65 75 83 63 70 71 48 47 70 70 32 156 117 104 103 97 85 41 18 103 326 335 332 331 341 339 342 2 5 0 346 343 354 359 4 14 13 15 0 349 343 347 347 353 352 0 358 0 358 360 358 1 355 1 3 358 359 357 353 350 348 343 340 332 326 322 322 320 324 326 327 327
112 107 98 96 94 95 100 90 85 83 72 67 90 87 71 56 62 54 56 60 68 68 72 64 73 66 91 91 26 44 128 125 98 299 181 2 344 355 348 338 335 351 0 3 357 343 353 358 358 2 12 12 3 347 348 347 351 353 3 1 3 4 2 360 358 6 2 359 358 359 355 355 352 350 342 336 331 323 310 316 317 319 323 327 327 325 322
88 99 100 92 95 100 93 95 84 80 77 76 79 86 94 96 91 82 82 86 93 88 83 75 73 67 52 72 90 88 178 275 141 174 271 244 321 340 310 334 342 345 359 359 350 339 347 355 353 355 4 8 357 349 349 353 356 358 359 360 2 360 353 355 357 4 4 358 355 356 348 348 339 338 327 326 320 310 312 317 317 321 326 328 323 321 320
103 103 86 103 107 131 136 116 107 110 99 95 109 109 125 123 102 120 115 122 123 115 100 77 66 57 69 49 30 35 59 78 65 215 311 339 349 346 329 341 339 353 357 3 353 347 347 350 346 342 355 356 350 347 344 345 353 349 351 352 352 349 353 1 1 1 358 355 357 355 347 338 332 326 326 320 311 317 322 320 321 324 327 325 318 318 319
114 103 110 114 103 100 87 95 125 125 126 132 129 115 116 124 137 129 138 146 133 124 117 94 29 359 11 18 20 12 14 12 8 16 43 352 360 346 343 4 353 340 350 354 344 331 333 331 322 333 340 341 344 335 331 340 351 346 347 339 343 346 353 357 356 355 353 356 0 348 332 330 319 311 316 316 322 324 327 326 324 319 319 316 319 314 316
68 77 71 67 72 56 69 65 75 83 130 123 126 127 134 143 128 125 130 135 146 146 148 125 109 304 6 337 2 1 4 20 29 7 10 351 357 331 331 0 346 335 344 323 321 327 323 316 330 334 335 333 313 322 329 339 344 340 338 341 343 346 357 356 352 344 344 353 347 332 320 312 302 313 316 319 322 326 325 322 318 316 317 317 316 316 315